Погода во Владыславово

Польша     54°47′52″N   18°23′41″E
темп.,
°C
ветер,
м/с
пор.,
м/с
влажн.,
%
обл.,
%
осадки,
мм/ч
давл.,
гПа
погр.,
м
27 ноября, сб
сб2701:00+4юв3472100 0.0 995515
04:00+5в4571100 0.0 994650
07:00+3в3490100 0.4 994492
10:00+3всв2596100 0.8 995533
13:00+4всв3596100 2.1 995535
16:00+4св3593100 1.3 996672
19:00+5всв4585100 2.2 996644
22:00+5в2379100 0.5 997517
28 ноября, вс
вс2801:00+4ююз1188100 0.8 997433
04:00+3юз4496100 0.4 997432
07:00+3ююз4584100 0.6 998346
10:00+2ююз458699 0.0 999404
13:00+3юз3479100 0.1 999731
16:00+3ююз2272100 0.1 999550
19:00+3вюв0175100 0.2 999260
22:00+4всв3476100 0.1 999495
29 ноября, пн
пн2901:00+4всв6777100 0.2 997677
04:00+4св8992100 0.6 996772
07:00+4св111395100 2.7 995868
10:00+4ссв121580100 0.3 9951258
13:00+4с131592100 1.6 9941174
16:00+4с141795100 2.2 9951233
19:00+4с151776100 3.3 9951489
22:00+4с141778100 0.3 9971541
30 ноября, вт
вт3001:00+4ссз131562100 0.5 9981608
04:00+3сз121365100 0.1 10001508
07:00+2зсз8106255 0.1 10001012
10:00+3з696895 0.0 9991158
13:00+3юз71173100 0.3 995823
16:00+1ю81497100 1.4 991891
19:00+2ююз71297100 2.1 988579
22:00+3зюз3698100 0.5 987251
1 декабря, ср
ср101:00+4ссв7896100 0.8 991617
04:00+3с8981100 0.6 9971076
07:00+3ссз4579100 1.0 999686
10:00+3юз2271100 0.2 1000528
13:00+3ю4681100 0.3 997641
16:00+2ююв81198100 2.9 993588
19:00+2юв111399100 7.8 989649
22:00+4ю61196100 5.8 985674